Date,TemperatureHighF,TemperatureAvgF,TemperatureLowF,DewpointHighF,DewpointAvgF,DewpointLowF,HumidityHigh,HumidityAvg,HumidityLow,PressureMaxIn,PressureMinIn,WindSpeedMaxMPH,WindSpeedAvgMPH,GustSpeedMaxMPH,PrecipitationSumIn
2013-1-1,37.9,27.1,11.7,24.3,10.3,-5.0,74,50,28,29.63,29.41,18,6,25,0.00
2013-1-2,29.5,13.5,2.5,11.5,-0.6,-14.1,65,53,41,29.80,29.59,13,5,19,0.00
2013-1-3,27.9,13.5,-0.8,5.1,-8.7,-19.9,57,37,21,29.81,29.67,18,5,18,0.00
2013-1-4,38.8,28.4,18.7,21.3,16.0,5.1,74,60,46,29.67,29.50,13,7,21,0.00
2013-1-5,43.7,31.8,18.1,22.3,15.6,8.2,67,52,28,29.96,29.52,19,6,24,0.00
2013-1-6,42.4,32.0,18.7,27.4,22.8,10.0,83,69,53,29.89,29.64,11,4,14,0.00
2013-1-7,41.7,29.4,14.7,26.8,15.4,5.9,81,58,27,30.08,29.66,12,4,14,0.00
2013-1-8,44.6,33.1,23.4,25.5,19.9,9.1,73,59,43,30.05,29.96,13,5,14,0.00
2013-1-9,42.1,36.0,19.0,32.0,25.2,13.9,85,66,47,30.07,29.69,20,6,27,0.01
2013-1-10,46.2,38.3,27.3,28.6,21.6,16.4,66,51,38,30.24,29.73,23,8,24,0.00
2013-1-11,38.7,29.8,20.5,28.6,20.9,15.6,89,70,49,30.23,29.93,5,2,9,0.05
2013-1-12,41.5,36.9,32.0,39.5,35.2,29.4,99,93,88,29.91,29.84,3,1,7,0.02
2013-1-13,48.6,43.1,34.0,47.3,42.1,33.0,99,96,91,29.86,29.71,9,4,14,0.00
2013-1-14,61.2,46.7,35.2,48.7,37.5,22.7,98,73,46,29.98,29.57,12,4,21,0.01
2013-1-15,43.5,34.0,26.6,24.8,20.5,17.3,71,58,42,30.03,29.92,8,2,12,0.00
2013-1-16,32.0,29.2,26.1,28.7,24.0,18.7,89,81,63,29.95,29.52,4,1,6,0.00
2013-1-17,40.6,32.9,24.4,27.9,20.6,5.2,86,61,42,29.81,29.52,17,5,21,0.08
2013-1-18,26.2,17.8,7.9,1.7,-7.8,-14.4,51,32,22,30.10,29.76,17,5,21,0.00
2013-1-19,43.9,33.2,17.4,23.2,14.9,-1.3,55,47,41,30.01,29.61,21,9,23,0.00
2013-1-20,48.0,37.2,24.3,27.9,18.1,1.4,62,46,25,29.62,29.25,29,13,29,0.00
2013-1-21,25.0,19.7,14.4,11.8,2.3,-9.2,75,49,28,29.77,29.50,12,4,12,0.00
2013-1-22,24.4,16.1,5.2,11.8,-0.9,-14.7,76,49,24,29.75,29.45,14,5,21,0.00
2013-1-23,15.1,6.8,-1.8,-10.9,-20.6,-25.7,49,27,21,29.80,29.73,11,7,16,0.00
2013-1-24,19.6,6.9,-3.5,-10.4,-20.9,-27.1,37,26,21,29.89,29.74,20,7,21,0.00
2013-1-25,22.3,13.7,3.6,-8.9,-16.4,-23.8,33,24,21,29.98,29.75,13,5,16,0.00
2013-1-26,25.2,14.8,7.2,2.0,-9.2,-16.8,64,35,22,29.90,29.68,16,7,17,0.00
2013-1-27,30.9,17.9,9.3,-1.5,-7.6,-15.1,47,32,21,30.14,29.89,12,5,17,0.00
2013-1-28,26.8,21.3,13.8,16.9,6.2,-10.6,81,56,22,30.12,29.73,6,2,6,0.00
2013-1-29,37.2,27.5,16.7,26.6,21.7,10.2,89,79,61,29.89,29.73,4,1,5,0.04
2013-1-30,57.2,43.9,29.7,54.5,41.8,27.1,97,92,88,29.83,29.25,27,5,27,0.12
2013-1-31,58.8,40.7,25.7,56.5,28.4,8.5,97,63,38,29.28,28.10,30,14,33,0.67
2013-2-1,32.0,23.7,17.6,10.7,0.7,-8.7,58,37,24,29.74,29.29,19,9,22,0.00
2013-2-2,27.9,21.5,10.8,10.6,-2.8,-6.6,66,35,23,29.90,29.73,24,5,24,0.00
2013-2-3,26.6,22.0,13.6,14.9,11.6,6.9,76,64,47,29.74,29.44,7,2,8,0.00
2013-2-4,27.5,21.6,16.5,9.3,-0.3,-7.6,71,39,24,29.58,29.41,20,9,29,0.00
2013-2-5,32.7,22.9,12.7,13.7,3.4,-3.8,74,44,28,29.71,29.60,8,3,9,0.00
2013-2-6,38.3,27.3,16.2,20.9,10.0,-6.8,81,50,27,29.97,29.60,15,4,17,0.00
2013-2-7,32.5,21.8,9.1,1.9,-6.7,-9.8,52,29,21,30.20,29.98,8,4,11,0.00
2013-2-8,20.3,17.8,14.2,11.2,7.9,-13.5,75,67,22,30.16,29.46,19,10,26,0.00
2013-2-9,21.2,16.4,11.5,14.5,7.9,-2.5,79,69,52,29.84,29.38,21,13,34,0.00
2013-2-10,45.5,26.5,12.7,7.7,-0.4,-9.8,54,32,20,30.07,29.88,16,4,16,0.00
2013-2-11,38.8,27.2,18.9,38.1,17.6,-1.9,98,69,36,30.03,29.33,11,1,14,0.07
2013-2-12,43.0,36.4,32.4,34.7,24.6,21.2,90,62,48,29.57,29.33,20,9,24,0.04
2013-2-13,46.0,34.1,26.2,22.8,18.1,15.2,67,53,34,29.57,29.44,8,3,8,0.00
2013-2-14,48.7,34.0,22.5,19.4,15.5,12.3,70,49,26,29.68,29.43,8,2,11,0.00
2013-2-15,52.9,38.6,23.4,28.9,24.1,15.2,81,58,34,29.68,29.60,16,5,24,0.00
2013-2-16,42.3,32.8,23.5,29.9,18.5,4.4,86,57,33,29.67,29.45,13,4,16,0.06
2013-2-17,23.5,17.9,12.7,7.3,-3.7,-12.0,69,39,27,29.46,29.13,26,12,33,0.00
2013-2-18,30.7,19.8,9.1,-1.6,-8.8,-13.1,39,28,21,29.84,29.37,24,9,24,0.00
2013-2-19,43.3,33.5,18.5,34.2,14.9,-10.0,90,51,22,29.85,29.31,14,4,18,0.08
2013-2-20,36.7,28.1,21.6,32.5,14.7,3.2,87,58,34,29.47,29.26,16,5,50,0.01
2013-2-21,32.4,24.4,18.9,10.5,6.1,0.0,59,46,29,29.92,29.46,21,10,24,0.00
2013-2-22,40.5,28.6,20.8,18.3,13.6,10.0,67,54,33,30.09,29.92,14,4,15,0.00
2013-2-23,33.8,30.3,25.2,28.3,22.6,15.1,90,73,63,30.02,29.65,9,2,11,0.00
2013-2-24,34.7,31.8,28.9,31.1,28.7,25.9,91,88,82,29.65,29.45,10,1,15,0.02
2013-2-25,43.3,32.9,25.7,30.7,26.8,21.3,89,78,60,29.93,29.62,5,1,8,0.22
2013-2-26,46.6,33.6,21.9,37.8,25.0,18.4,89,71,51,30.03,29.90,9,3,13,0.07
2013-2-27,37.4,33.4,31.1,36.4,30.8,24.0,96,90,72,29.87,29.35,16,6,23,0.50
2013-2-28,43.5,34.9,29.7,40.8,32.1,27.9,95,89,82,29.35,29.27,6,1,8,0.21
2013-3-1,41.0,34.8,31.6,31.5,24.8,21.5,88,67,53,29.41,29.25,10,5,14,0.00
2013-3-2,41.4,34.3,29.5,26.4,22.2,19.8,68,61,52,29.41,29.35,12,5,17,0.00
2013-3-3,44.2,33.7,26.8,27.4,22.5,17.8,73,64,48,29.36,29.29,11,4,14,0.01
2013-3-4,39.6,31.6,24.4,24.9,18.7,13.6,82,59,44,29.47,29.31,17,8,23,0.00
2013-3-5,48.9,36.2,27.0,27.8,22.2,15.7,80,57,37,29.80,29.49,14,5,14,0.00
2013-3-6,34.2,32.4,30.0,30.6,27.8,23.7,90,83,73,29.85,29.75,24,13,30,0.05
2013-3-7,33.1,29.8,27.9,27.0,24.9,21.3,89,82,75,29.83,29.74,17,9,21,0.04
2013-3-8,40.8,34.1,27.5,28.0,23.7,15.8,89,68,42,29.89,29.68,17,8,18,0.11
2013-3-9,57.4,42.1,23.7,23.0,16.0,9.8,81,39,19,30.06,29.87,13,5,17,0.00
2013-3-10,50.4,37.7,18.9,26.9,23.6,13.7,84,59,37,30.11,30.00,9,4,11,0.00
2013-3-11,51.3,42.2,27.0,36.9,29.3,21.9,88,62,36,30.01,29.85,11,5,14,0.00
2013-3-12,49.8,45.3,38.1,49.0,43.7,36.4,98,94,81,29.85,29.46,18,4,18,0.28
2013-3-13,52.0,41.1,28.8,41.9,24.9,14.1,97,56,26,29.51,29.44,14,5,14,0.00
2013-3-14,37.9,27.7,17.6,19.6,7.3,-3.3,63,42,31,29.55,29.43,19,9,20,0.00
2013-3-15,39.7,28.6,15.1,25.5,7.6,-5.5,79,43,22,29.56,29.34,12,7,15,0.00
2013-3-16,42.3,31.7,21.2,21.6,6.9,0.6,70,37,21,29.59,29.38,10,3,10,0.00
2013-3-17,37.8,26.7,15.4,8.8,2.2,-6.4,67,38,21,29.98,29.57,20,4,20,0.00
2013-3-18,39.2,28.3,9.1,19.3,-0.6,-11.9,74,30,20,30.13,29.93,8,3,12,0.00
2013-3-19,31.6,28.5,23.5,28.8,25.2,19.2,91,87,80,29.93,29.39,18,8,24,0.00
2013-3-20,37.8,29.5,16.5,20.8,14.9,10.6,85,56,38,29.51,29.41,17,7,22,0.12
2013-3-21,44.8,30.6,15.8,15.6,9.5,4.7,68,44,21,29.50,29.32,7,3,8,0.04
2013-3-22,43.7,32.2,21.6,20.2,13.0,6.7,57,46,26,29.45,29.31,17,6,18,0.00
2013-3-23,44.4,34.5,21.4,18.2,13.1,9.8,67,43,25,29.51,29.36,20,9,33,0.00
2013-3-24,47.8,37.1,29.3,21.5,17.7,14.3,59,46,32,29.53,29.47,20,5,20,0.00
2013-3-25,43.2,35.7,26.8,26.7,21.7,14.6,65,56,47,29.50,29.25,16,7,25,0.00
2013-3-26,52.0,40.4,31.3,28.0,19.3,12.8,67,45,23,29.51,29.28,11,4,14,0.00
2013-3-27,54.5,44.0,27.7,27.8,19.2,14.0,66,39,22,29.62,29.47,13,5,18,0.00
2013-3-28,51.4,40.7,33.4,32.7,28.2,24.3,86,63,38,29.75,29.59,8,4,10,0.01
2013-3-29,58.6,45.9,35.6,32.9,27.3,22.1,67,50,26,29.78,29.71,11,4,13,0.00
2013-3-30,56.5,45.2,28.4,30.1,18.9,10.4,73,40,19,29.83,29.75,17,4,17,0.00
2013-3-31,57.9,42.4,24.1,36.7,20.8,15.3,88,49,22,29.83,29.56,17,5,17,0.02
2013-4-1,58.5,44.2,32.2,41.3,32.2,1.9,98,66,25,29.51,29.25,21,7,35,0.21
2013-4-2,37.4,31.6,24.1,13.4,6.1,1.2,49,34,22,29.64,29.50,24,11,34,0.00
2013-4-3,46.2,35.8,24.6,11.2,7.0,1.8,49,31,20,29.83,29.61,20,9,24,0.00
2013-4-4,55.4,40.8,24.8,23.0,12.8,7.6,53,34,19,29.99,29.74,11,5,12,0.00
2013-4-5,61.9,47.0,36.3,26.9,21.3,15.7,64,39,19,29.74,29.40,16,7,17,0.00
2013-4-6,47.7,36.9,25.9,23.8,8.0,-0.7,66,32,20,30.03,29.39,14,5,24,0.00
2013-4-7,57.4,43.2,23.0,37.6,22.0,10.0,80,46,22,30.03,29.71,21,8,29,0.00
2013-4-8,68.9,54.3,41.0,41.0,35.3,27.5,97,54,23,29.83,29.67,14,5,16,0.00
2013-4-9,69.6,56.3,40.5,51.3,43.4,37.3,99,65,38,29.80,29.61,14,4,20,0.02
2013-4-10,60.1,51.2,43.5,50.6,47.6,42.4,99,88,67,29.74,29.62,8,3,10,0.50
2013-4-11,53.8,44.1,36.7,45.4,33.2,23.3,99,68,38,29.87,29.59,9,4,14,0.05
2013-4-12,37.6,32.8,30.9,32.3,30.8,26.2,99,93,65,29.88,29.65,11,3,14,0.13
2013-4-13,52.9,43.5,15.8,39.7,25.2,5.7,86,51,21,30.01,29.68,9,3,11,0.04
2013-4-14,52.7,43.6,32.5,36.1,29.4,24.0,88,59,42,30.28,30.00,14,5,18,0.00
2013-4-15,59.4,45.9,27.0,36.2,30.2,23.4,92,58,34,30.45,30.29,12,4,12,0.00
2013-4-16,68.2,52.6,33.6,51.9,42.5,28.8,91,71,41,30.45,30.16,21,8,27,0.00
2013-4-17,68.0,57.7,45.9,52.4,31.6,23.3,95,42,19,30.42,30.15,15,6,16,0.00
2013-4-18,63.7,52.1,32.9,43.3,30.7,24.6,86,47,27,30.50,30.23,17,8,22,0.00
2013-4-19,72.1,62.2,50.0,62.9,57.0,45.4,99,84,61,30.23,29.75,23,10,26,0.00
2013-4-20,63.1,49.7,37.4,62.0,35.2,21.3,99,61,30,30.30,29.75,19,7,22,0.41
2013-4-21,55.0,42.7,28.8,22.9,17.4,9.2,76,39,20,30.75,30.32,13,4,16,0.00
2013-4-22,52.0,42.5,27.1,32.3,25.6,19.9,88,54,33,30.82,30.70,20,8,24,0.00
2013-4-23,37.8,35.9,33.3,37.5,34.4,29.5,99,95,83,30.66,30.32,13,7,17,0.00
2013-4-24,77.5,61.3,38.1,51.4,42.8,32.7,99,58,20,30.21,29.90,16,5,17,0.01
2013-4-25,64.8,54.7,41.0,51.2,32.0,18.9,99,47,19,30.35,29.92,13,6,24,0.07
2013-4-26,61.9,48.4,31.8,36.3,31.4,25.7,81,54,28,30.51,30.38,15,4,15,0.00
2013-4-27,68.2,55.0,31.1,40.6,34.0,30.3,98,49,25,30.50,30.38,9,3,11,0.00
2013-4-28,72.7,59.2,34.3,44.6,36.1,30.7,98,47,22,30.42,30.30,12,5,16,0.00
2013-4-29,70.7,59.8,43.9,45.6,38.1,24.5,79,47,29,30.36,30.28,15,6,16,0.00
2013-4-30,73.8,62.1,45.7,36.5,25.3,19.1,60,27,14,30.45,30.34,11,4,13,0.00
2013-5-1,74.7,60.1,33.3,40.7,29.5,20.4,88,37,15,30.58,30.45,13,4,15,0.00
2013-5-2,82.6,62.8,45.5,46.4,39.2,30.9,77,46,19,30.60,30.44,17,5,20,0.00
2013-5-3,63.5,52.9,37.0,44.9,41.2,34.4,98,67,46,30.61,30.50,15,5,16,0.00
2013-5-4,67.5,54.3,36.7,50.9,36.7,19.8,99,58,20,30.47,30.38,14,5,18,0.00
2013-5-5,69.3,53.9,28.8,44.7,35.6,28.5,99,55,31,30.42,30.33,12,4,14,0.00
2013-5-6,76.3,59.7,30.9,47.8,38.5,30.7,99,53,20,30.36,30.25,11,3,12,0.00
2013-5-7,81.3,67.7,48.6,57.0,48.1,37.3,97,57,22,30.27,30.20,14,4,14,0.00
2013-5-8,70.7,62.5,49.5,63.7,58.5,49.2,99,88,68,30.32,30.19,15,4,16,0.14
2013-5-9,71.2,60.4,56.5,60.9,58.2,56.2,99,93,64,30.17,30.02,5,2,8,0.17
2013-5-10,83.1,69.5,48.7,63.4,54.9,48.5,99,64,36,30.08,30.02,9,3,10,0.01
2013-5-11,67.5,61.9,56.5,62.7,59.1,54.6,99,91,70,30.03,29.83,16,4,16,0.11
2013-5-12,73.0,59.0,44.8,58.0,47.7,26.8,99,70,37,29.88,29.72,10,3,11,0.00
2013-5-13,58.3,48.8,36.9,34.6,28.4,24.5,76,47,29,30.14,29.93,13,5,17,0.00
2013-5-14,60.8,50.4,36.5,35.6,29.4,24.6,75,47,26,30.14,30.09,12,4,18,0.00
2013-5-15,66.6,54.5,33.3,51.9,38.3,24.2,94,61,23,30.14,29.80,14,5,17,0.00
2013-5-16,81.1,70.3,48.4,51.6,37.1,25.4,93,35,16,29.94,29.75,21,7,25,0.00
2013-5-17,72.0,61.3,43.9,43.9,39.2,30.4,86,47,23,30.26,29.96,17,5,18,0.00
2013-5-18,76.8,61.3,37.0,46.4,31.7,5.7,91,37,21,29.93,29.20,8,4,12,0.04
2013-5-19,70.5,57.3,42.6,55.9,51.0,42.3,99,82,53,29.97,29.86,8,3,11,0.02
2013-5-20,86.0,70.8,53.6,64.9,60.2,52.8,99,72,47,29.84,29.60,9,3,9,0.04
2013-5-21,81.7,65.1,48.7,69.8,59.9,48.5,99,85,63,29.66,29.54,12,5,17,0.00
2013-5-22,68.4,57.7,48.4,63.2,55.9,48.1,99,94,80,29.73,29.53,9,4,11,0.61
2013-5-23,77.2,62.9,51.4,70.4,61.6,51.2,99,96,75,29.57,29.46,16,4,16,0.52
2013-5-24,72.3,61.6,45.9,66.1,57.4,45.1,99,87,67,29.48,29.31,9,3,14,0.31
2013-5-25,51.1,44.7,37.8,49.0,43.3,37.5,99,95,85,29.47,29.37,14,6,17,0.64
2013-5-26,58.8,49.1,36.9,43.1,38.9,34.8,95,69,50,29.72,29.33,16,6,21,0.01
2013-5-27,73.9,57.7,36.5,43.1,37.6,31.0,99,54,22,29.79,29.70,12,3,12,0.00
2013-5-28,76.5,63.2,37.6,50.2,42.3,36.2,99,52,26,29.87,29.80,8,3,10,0.00
2013-5-29,59.4,56.1,50.9,59.1,55.3,49.2,99,97,89,29.82,29.69,4,2,8,0.19
2013-5-30,91.6,77.1,59.7,68.8,64.5,59.4,99,69,41,29.75,29.68,10,3,11,0.01
2013-5-31,96.4,83.6,64.6,69.8,65.8,60.5,95,59,35,29.76,29.62,8,3,14,0.00
2013-6-1,95.2,81.7,69.4,71.7,65.9,60.7,98,62,34,29.66,29.54,16,4,21,0.32
2013-6-2,90.3,80.2,67.5,70.8,67.2,62.1,99,68,40,29.55,29.39,20,7,25,0.06
2013-6-3,82.2,70.9,59.5,67.2,61.1,43.4,99,75,44,29.51,29.45,11,4,13,0.15
2013-6-4,74.7,63.0,45.7,49.1,44.5,38.2,78,53,35,29.73,29.48,15,5,15,0.00
2013-6-5,78.8,67.2,45.3,52.5,46.9,39.0,97,53,24,29.82,29.75,7,2,10,0.00
2013-6-6,73.0,63.6,51.1,54.2,50.1,47.7,93,63,44,29.83,29.75,9,3,11,0.00
2013-6-7,53.6,51.7,49.1,52.9,51.2,48.8,99,98,96,29.75,29.57,14,5,16,1.02
2013-6-8,81.3,66.1,49.8,64.7,58.3,49.6,99,78,54,29.64,29.30,13,4,14,0.67
2013-6-9,83.5,71.0,55.0,59.0,56.2,54.2,99,63,39,29.83,29.66,14,3,14,0.00
2013-6-10,71.6,63.7,52.7,60.5,57.8,52.2,99,82,62,29.85,29.69,10,3,11,0.19
2013-6-11,60.1,56.1,52.7,58.1,55.1,52.2,99,97,89,29.65,29.26,11,4,11,0.63
2013-6-12,70.5,62.8,53.6,57.7,54.3,52.1,99,75,58,29.50,29.21,14,4,18,0.04
2013-6-13,72.9,56.8,48.0,58.2,53.6,47.8,99,90,57,29.48,29.36,8,2,11,0.48
2013-6-14,80.4,62.9,49.6,59.0,53.3,49.4,99,75,36,29.44,29.29,8,2,14,0.40
2013-6-15,82.0,69.2,54.3,53.6,47.4,40.0,81,50,24,29.60,29.46,9,3,9,0.00
2013-6-16,77.4,70.6,55.0,55.8,51.4,46.5,73,52,41,29.60,29.50,8,5,14,0.00
2013-6-17,80.1,76.2,57.2,64.5,61.7,56.1,97,62,55,29.51,29.45,5,5,8,0.00
2013-6-18,70.2,62.4,56.1,64.4,59.8,55.8,99,92,75,29.61,29.55,12,4,12,0.33
2013-6-19,81.3,68.1,49.1,55.6,49.2,42.5,99,56,27,29.77,29.57,10,2,10,0.00
2013-6-20,83.3,70.0,44.4,55.6,49.6,43.8,98,53,31,29.90,29.80,10,2,14,0.00
2013-6-21,90.1,74.9,58.5,61.7,55.4,49.6,91,56,26,29.90,29.85,7,2,11,0.00
2013-6-22,88.0,76.9,60.1,66.3,62.1,58.3,94,62,43,29.88,29.77,14,4,14,0.00
2013-6-23,92.1,81.8,67.1,71.2,67.4,60.7,83,63,45,29.81,29.65,14,5,17,0.00
2013-6-24,96.8,82.7,68.0,73.5,69.4,62.6,99,68,43,29.68,29.57,12,3,14,0.00
2013-6-25,93.6,81.8,67.3,72.0,68.7,64.2,97,67,45,29.60,29.41,11,4,13,0.00
2013-6-26,86.9,74.3,66.4,74.9,69.7,66.1,99,86,61,29.53,29.40,5,2,8,0.00
2013-6-27,71.4,66.2,62.4,67.7,65.2,61.7,99,97,86,29.53,29.45,7,3,8,0.00
2013-6-28,80.6,67.4,55.6,73.9,65.6,55.3,99,94,76,29.43,29.16,13,3,14,0.00
2013-6-29,91.6,77.9,66.9,73.0,68.3,10.6,99,74,50,30.05,29.18,17,7,17,0.00
2013-6-30,89.8,78.3,66.2,73.3,69.6,65.9,99,77,51,30.17,28.97,17,5,17,0.00
2013-7-1,77.5,74.1,67.8,74.6,72.1,67.5,99,94,84,29.22,29.09,7,2,7,0.50
2013-7-2,87.6,74.9,61.9,76.8,69.9,61.3,99,86,63,29.35,29.22,14,5,14,0.00
2013-7-3,91.2,85.1,60.8,75.5,71.3,60.2,99,64,55,29.35,29.30,19,7,19,0.00
2013-7-4,96.8,87.4,77.7,74.9,72.8,70.9,84,63,46,28.74,28.70,17,6,17,0.00
2013-7-5,97.7,90.0,79.7,76.9,73.8,70.5,80,60,44,28.77,28.64,16,6,16,0.00
2013-7-6,92.5,81.8,71.4,75.8,68.3,60.4,94,66,40,28.69,28.61,10,4,10,0.00
2013-7-7,94.5,83.3,67.8,77.0,71.8,60.9,86,69,49,28.64,28.52,12,3,12,0.00
2013-7-8,94.1,79.9,66.6,76.4,71.6,65.9,98,78,47,28.66,28.52,18,4,18,0.00
2013-7-9,76.5,70.9,63.1,70.2,66.7,62.3,99,87,79,28.71,28.65,8,3,8,0.00
2013-7-10,85.8,75.1,64.8,78.4,72.3,64.5,99,92,72,28.67,28.40,17,4,17,0.37
2013-7-11,89.1,79.5,68.7,74.1,69.9,64.2,98,74,52,28.55,28.38,10,2,10,0.01
2013-7-12,81.9,73.6,63.9,65.1,60.2,57.4,85,64,46,28.80,28.56,15,5,15,0.00
2013-7-13,81.5,73.2,62.1,71.7,67.2,57.4,99,82,69,28.92,28.81,8,2,8,0.00
2013-7-14,96.8,83.9,65.8,76.3,70.9,65.6,99,67,46,28.91,28.82,10,2,10,0.00
2013-7-15,98.8,87.1,68.7,76.9,70.4,66.2,96,59,41,28.82,28.72,12,3,12,0.00
2013-7-16,96.1,86.8,68.7,71.6,68.4,64.5,89,56,42,28.78,28.74,17,4,17,0.00
2013-7-17,98.6,89.6,66.4,74.0,70.9,65.0,97,56,42,28.79,28.62,14,4,14,0.00
2013-7-18,99.7,90.0,75.9,76.7,72.7,68.4,88,59,41,28.63,28.56,11,4,11,0.00
2013-7-19,99.5,90.8,70.9,76.1,73.1,70.0,98,58,44,28.57,28.34,19,8,19,0.00
2013-7-20,93.7,84.0,68.4,74.5,68.9,62.1,81,62,48,28.42,28.29,15,5,15,0.00
2013-7-21,88.0,78.1,63.5,68.8,65.8,60.2,95,68,45,28.60,28.43,8,3,8,0.00
2013-7-22,85.8,75.3,60.1,71.3,67.6,59.8,99,78,58,28.64,28.53,12,4,12,0.00
2013-7-23,86.9,72.5,65.1,76.6,70.6,64.8,99,94,70,28.50,28.16,10,2,10,0.96
2013-7-24,88.0,77.5,60.8,72.1,64.6,53.2,99,66,43,28.57,28.20,16,4,16,0.01
2013-7-25,70.0,63.1,54.9,58.9,55.7,47.6,97,78,60,28.70,28.58,15,4,15,0.01
2013-7-26,80.1,69.0,59.5,67.0,62.6,58.2,99,81,60,28.67,28.56,19,4,19,0.33
2013-7-27,89.4,76.1,55.9,66.4,62.4,54.8,98,66,42,28.65,28.59,11,2,11,0.00
2013-7-28,87.3,75.8,57.9,71.2,67.1,57.6,99,77,53,28.62,28.57,12,3,12,0.07
2013-7-29,93.0,79.2,65.5,73.5,66.8,58.9,99,68,40,28.65,28.56,16,3,16,0.01
2013-7-30,87.3,75.2,58.6,60.6,57.2,53.4,87,56,36,28.70,28.64,12,4,12,0.00
2013-7-31,87.3,76.8,56.3,65.7,60.4,54.6,98,59,37,28.74,28.64,10,2,10,0.00
2013-8-1,81.9,70.2,57.2,67.7,64.0,56.9,99,82,56,28.65,28.50,14,5,14,0.15
2013-8-2,88.0,76.5,62.6,69.8,61.9,55.4,99,63,36,28.47,28.40,16,3,16,1.13
2013-8-3,87.1,74.7,59.9,64.8,58.9,53.0,91,60,35,28.47,28.39,16,4,16,0.00
2013-8-4,80.4,72.5,56.5,60.6,55.7,51.8,91,57,42,28.49,28.39,12,4,12,0.00
2013-8-5,81.1,67.5,53.2,53.3,46.1,40.8,87,49,25,28.64,28.48,16,5,16,0.00
2013-8-6,86.7,72.4,46.4,59.9,55.0,46.1,99,57,37,28.75,28.64,11,3,11,0.00
2013-8-7,82.8,73.2,52.7,65.6,58.4,52.2,99,62,43,28.77,28.70,16,4,16,0.00
2013-8-8,85.1,76.6,63.0,72.4,69.1,58.6,99,78,63,28.70,28.61,14,5,14,0.00
2013-8-9,78.6,71.8,68.9,76.8,71.0,68.6,99,97,90,28.62,28.36,13,4,13,2.46
2013-8-10,83.7,75.4,61.3,69.0,59.3,53.0,99,59,41,28.61,28.41,16,5,16,0.01
2013-8-11,85.6,72.5,50.5,60.0,55.3,50.3,99,58,40,28.68,28.60,12,3,12,0.00
2013-8-12,85.1,76.1,56.1,64.1,59.2,53.4,95,58,40,28.63,28.53,12,3,12,0.00
2013-8-13,74.7,70.0,62.8,70.0,66.4,60.9,97,88,81,28.53,28.31,11,3,11,0.06
2013-8-14,74.3,68.4,56.1,64.1,53.6,50.0,99,60,48,28.48,28.27,21,7,21,0.00
2013-8-15,79.0,69.8,50.7,56.7,53.0,49.1,95,57,39,28.70,28.56,14,4,14,0.00
2013-8-16,83.7,71.3,50.5,59.3,55.0,49.2,96,59,40,28.79,28.69,12,3,12,0.00
2013-8-17,84.4,71.2,52.0,65.7,60.2,50.8,99,71,47,28.87,28.79,8,1,8,0.00
2013-8-18,85.5,74.3,57.4,68.2,62.9,57.1,99,70,43,28.86,28.70,14,2,14,0.00
2013-8-19,83.8,76.5,59.4,65.6,61.7,58.0,98,62,44,28.68,28.56,11,4,11,0.00
2013-8-20,87.4,78.6,60.8,65.8,62.3,57.2,92,60,39,28.71,28.59,8,2,8,0.00
2013-8-21,89.6,82.6,61.3,69.0,64.8,47.2,94,57,42,28.75,28.65,115,3,115,0.00
2013-8-22,91.2,81.2,63.5,70.7,67.8,60.8,93,66,45,28.64,28.44,15,6,15,0.00
2013-8-23,79.9,72.7,59.7,68.4,56.5,49.7,93,59,41,28.73,28.45,20,5,20,0.00
2013-8-24,83.7,68.2,50.7,60.0,51.0,44.1,92,57,31,28.92,28.74,12,3,12,0.00
2013-8-25,83.3,69.6,52.9,59.8,54.3,49.3,88,62,32,28.94,28.78,10,2,10,0.00
2013-8-26,83.8,74.2,60.6,68.3,65.3,56.1,97,74,57,28.77,28.48,14,5,14,0.07
2013-8-27,86.2,77.6,66.7,70.7,67.7,64.8,99,74,51,28.51,28.44,14,4,14,0.00
2013-8-28,88.0,77.6,61.3,72.4,68.0,60.8,99,74,52,28.59,28.47,11,2,11,0.00
2013-8-29,67.3,64.1,62.6,64.9,63.3,61.8,99,97,91,28.68,28.56,15,6,15,0.21
2013-8-30,86.5,77.1,56.5,69.1,65.7,56.2,99,70,48,28.62,28.44,10,3,10,0.00
2013-8-31,84.9,72.3,27.9,76.4,66.0,5.7,99,83,21,28.74,28.44,9,3,9,0.05
2013-9-1,86.9,78.2,68.4,75.5,72.4,66.6,98,83,65,28.79,28.70,10,2,10,0.02
2013-9-2,84.0,77.1,68.9,76.8,72.9,68.6,99,87,70,28.77,28.62,11,3,11,0.30
2013-9-3,82.4,73.2,62.4,71.5,65.7,56.3,99,78,62,28.91,27.72,11,3,11,0.05
2013-9-4,81.1,72.5,57.0,61.1,56.8,53.1,97,59,42,28.82,28.70,12,5,12,0.00
2013-9-5,71.2,62.0,46.8,59.7,48.9,41.8,87,65,39,29.03,28.74,16,4,16,0.00
2013-9-6,64.9,56.5,39.6,53.2,41.8,35.7,99,61,35,29.11,29.03,8,2,8,0.00
2013-9-7,81.1,72.2,51.8,55.6,50.5,43.4,77,48,34,28.95,28.80,11,4,11,0.00
2013-9-8,72.0,61.9,47.1,61.2,50.0,40.5,92,67,41,28.98,28.65,14,5,14,0.00
2013-9-9,73.0,62.2,37.4,51.1,45.9,37.1,99,58,37,29.08,28.97,15,4,15,0.00
2013-9-10,78.6,69.0,55.2,71.3,65.8,51.1,99,90,76,29.01,28.91,17,5,17,0.13
2013-9-11,95.0,85.1,67.8,78.9,74.2,67.4,99,72,51,28.97,28.85,23,5,23,0.06
2013-9-12,85.5,73.9,65.1,78.4,70.3,64.8,99,89,75,28.85,27.68,15,4,15,0.80
2013-9-13,77.7,68.0,58.1,69.8,62.6,53.9,99,84,65,28.66,28.50,13,3,13,0.04
2013-9-14,68.5,58.8,48.4,54.6,51.5,48.1,99,78,58,28.93,28.66,11,4,11,0.00
2013-9-15,73.9,57.3,42.1,60.2,49.8,41.8,99,79,45,29.03,28.93,6,2,6,0.00
2013-9-16,68.5,58.1,42.4,56.0,48.8,35.4,91,72,57,29.12,28.88,14,5,14,0.01
2013-9-17,63.3,52.1,36.3,45.7,39.8,32.6,99,66,42,29.30,29.13,21,4,21,0.00
2013-9-18,74.8,62.3,41.2,49.7,45.5,37.8,99,59,27,29.19,29.02,10,3,10,0.00
2013-9-19,80.1,64.2,47.3,55.4,51.0,45.1,95,65,36,29.02,28.93,11,3,11,0.00
2013-9-20,79.7,66.7,46.6,61.3,55.1,46.3,99,70,41,28.99,28.89,9,2,9,0.00
2013-9-21,76.3,67.8,51.1,63.8,60.3,50.8,99,78,59,28.90,28.64,22,8,22,0.01
2013-9-22,70.0,61.6,51.3,65.8,52.2,45.6,99,73,52,28.71,28.50,16,5,16,0.73
2013-9-23,61.3,50.2,41.4,44.1,40.9,37.8,94,72,52,28.87,28.71,13,5,13,0.00
2013-9-24,66.2,55.6,38.5,44.2,42.2,37.7,97,64,41,28.85,28.71,21,4,21,0.00
2013-9-25,69.6,56.3,41.9,52.5,47.4,41.6,99,74,52,28.83,28.71,17,4,17,0.00
2013-9-26,67.6,57.0,50.4,51.7,48.5,45.2,95,75,49,29.01,28.87,9,3,9,0.00
2013-9-27,66.4,57.7,46.8,54.0,50.9,46.5,99,80,60,29.15,29.01,13,2,13,0.00
2013-9-28,74.3,57.5,45.7,56.3,50.8,44.9,99,81,49,29.22,29.14,12,2,12,0.00
2013-9-29,68.4,52.4,40.6,57.1,46.6,40.4,99,84,47,29.15,29.01,6,2,6,0.00
2013-9-30,70.5,58.0,36.5,55.7,49.2,35.7,99,76,46,29.00,28.86,12,2,12,0.00
2013-10-1,77.9,60.7,43.5,57.8,52.1,43.0,99,77,43,28.85,28.75,8,2,8,0.33
2013-10-2,80.4,70.6,51.4,61.6,58.7,50.7,99,67,49,28.85,28.75,17,6,17,0.00
2013-10-3,79.9,66.3,48.6,56.2,50.5,41.4,97,62,27,28.98,28.86,8,2,8,0.00
2013-10-4,63.7,57.5,53.2,59.2,54.6,45.5,99,90,73,28.98,28.92,4,1,4,0.46
2013-10-5,68.9,60.3,55.2,58.3,56.2,53.8,99,87,65,29.01,28.93,7,2,7,0.01
2013-10-6,57.9,50.4,48.7,57.6,50.1,48.5,99,99,97,29.11,28.99,13,4,13,0.52
2013-10-7,73.4,63.3,52.0,70.6,61.8,51.4,99,95,83,29.01,28.67,27,6,27,0.60
2013-10-8,65.7,53.1,39.6,53.3,44.1,38.9,99,75,39,29.23,28.79,11,5,11,0.01
2013-10-9,61.2,51.0,35.6,47.0,41.9,34.8,99,74,44,29.35,29.24,12,4,12,0.00
2013-10-10,61.2,52.8,34.7,54.0,46.7,34.2,99,81,56,29.22,29.08,8,2,8,0.00
2013-10-11,71.6,59.1,41.5,53.1,44.4,26.0,99,66,19,29.05,28.99,10,2,10,0.00
2013-10-12,53.6,51.6,45.1,52.9,51.2,44.3,99,98,94,29.27,29.04,15,6,15,0.05
2013-10-13,58.5,51.2,40.1,50.8,47.1,39.8,99,87,72,29.32,29.24,11,2,11,0.01
2013-10-14,69.1,55.3,34.5,52.3,45.6,34.0,99,73,43,29.26,29.11,8,2,8,0.00
2013-10-15,68.4,59.6,51.3,56.8,53.4,46.8,98,81,65,29.14,29.06,11,4,11,0.00
2013-10-16,62.1,54.4,45.9,52.3,49.8,45.1,99,85,65,29.06,28.81,7,2,7,0.00
2013-10-17,73.4,58.0,46.0,59.5,51.2,45.2,99,81,39,28.78,28.61,12,3,12,0.00
2013-10-18,66.6,57.9,47.3,59.3,45.5,37.7,99,65,47,28.76,28.48,17,6,17,0.11
2013-10-19,68.0,51.6,34.9,46.4,42.4,34.1,99,74,41,28.81,28.65,11,3,11,0.00
2013-10-20,61.2,50.8,37.6,49.2,37.0,33.0,99,61,38,28.87,28.55,20,6,20,0.01
2013-10-21,66.2,54.6,37.4,44.1,40.7,34.7,91,62,42,28.96,28.88,14,5,14,0.00
2013-10-22,62.6,54.0,40.6,51.4,45.8,36.6,99,74,61,28.84,28.58,17,6,17,0.00
2013-10-23,54.9,45.8,30.2,38.7,33.6,28.7,96,64,42,28.65,28.45,11,2,11,0.00
2013-10-24,51.4,41.7,33.6,34.7,29.7,24.8,85,63,37,28.74,28.51,21,6,21,0.00
2013-10-25,49.5,38.8,26.6,35.8,27.1,21.5,95,65,43,28.99,28.74,17,4,17,0.00
2013-10-26,53.6,46.5,27.9,38.2,29.7,23.1,93,54,36,28.98,28.74,28,9,28,0.05
2013-10-27,54.9,47.8,34.9,37.0,33.5,27.4,78,58,41,28.91,28.63,21,7,21,0.00
2013-10-28,57.2,45.0,30.7,37.2,31.8,22.4,86,61,39,29.19,28.90,24,6,24,0.00
2013-10-29,47.5,36.0,21.2,26.6,18.9,10.1,87,54,24,29.29,29.18,8,2,8,0.00
2013-10-30,52.3,40.5,25.2,39.3,32.7,15.7,95,75,49,29.20,29.04,12,2,12,0.00
2013-10-31,58.1,48.8,31.1,57.8,48.1,30.1,99,97,89,29.08,28.71,17,4,17,0.26
2013-11-1,65.5,62.8,56.8,62.2,60.3,56.6,99,92,86,28.68,28.34,33,17,33,0.87
2013-11-2,65.1,50.6,37.4,50.3,42.8,37.1,99,78,43,28.61,28.48,8,2,8,0.02
2013-11-3,44.8,37.1,27.5,42.9,17.6,10.6,93,47,26,29.25,28.62,19,5,19,0.00
2013-11-4,40.8,34.3,23.2,17.5,11.6,7.5,57,40,26,29.48,29.25,13,5,13,0.00
2013-11-5,50.7,34.8,20.8,32.9,25.8,15.4,86,71,48,29.52,29.33,8,2,8,0.00
2013-11-6,58.3,48.5,36.0,53.9,43.6,32.2,95,83,62,29.32,28.67,21,7,21,0.02
2013-11-7,60.6,51.3,36.7,55.9,45.7,24.7,91,81,62,28.88,28.56,24,8,24,0.07
2013-11-8,45.5,36.0,24.4,32.9,24.6,16.9,78,63,53,28.89,28.67,20,6,20,0.00
2013-11-9,43.2,35.0,24.1,26.8,21.2,15.7,74,58,39,29.03,28.86,17,4,17,0.00
2013-11-10,51.1,41.9,32.5,42.3,34.1,26.8,98,75,59,28.85,28.59,20,7,20,0.05
2013-11-11,50.2,42.6,34.7,30.9,26.5,22.0,73,54,33,28.94,28.70,21,6,21,0.00
2013-11-12,43.7,30.0,24.8,34.0,15.6,9.8,82,55,46,29.00,28.71,18,6,18,0.01
2013-11-13,33.6,27.0,19.0,13.2,7.8,1.6,67,45,29,29.11,28.99,17,6,17,0.00
2013-11-14,49.3,40.5,26.8,24.2,19.4,12.8,58,43,30,28.94,28.87,16,6,16,0.00
2013-11-15,61.2,47.9,36.1,24.0,15.9,8.6,43,28,19,29.02,28.93,14,6,14,0.00
2013-11-16,60.4,45.8,34.9,31.5,26.4,19.4,79,50,26,29.16,29.01,7,2,7,0.00
2013-11-17,46.4,41.0,32.7,44.0,38.9,31.2,98,92,81,29.14,28.73,4,1,4,0.04
2013-11-18,62.4,52.1,44.2,57.5,41.9,29.9,99,69,46,28.70,28.39,21,7,21,0.19
2013-11-19,43.5,34.6,27.9,30.1,17.4,10.3,63,49,41,29.11,28.54,24,10,24,0.00
2013-11-20,39.6,30.3,19.6,12.8,8.5,1.5,69,42,22,29.43,29.12,15,5,15,0.00
2013-11-21,47.5,34.9,16.0,30.6,18.4,8.8,77,54,25,29.44,29.20,12,3,12,0.00
2013-11-22,42.1,40.1,38.1,41.8,39.0,31.6,99,96,74,29.19,28.70,14,1,14,0.15
2013-11-23,45.0,33.7,26.6,44.2,18.6,-2.7,98,54,27,28.77,28.62,27,9,27,0.08
2013-11-24,24.8,19.7,15.1,4.9,-8.3,-13.9,52,28,23,28.79,28.62,30,13,30,0.21
2013-11-25,31.3,22.3,11.8,9.9,-7.1,-15.6,48,27,21,28.74,28.74,17,7,17,0.00
2013-11-26,36.1,31.3,25.7,30.6,22.8,7.1,95,72,41,28.74,28.74,11,3,11,0.00
2013-11-27,54.5,44.0,32.0,53.7,43.1,29.9,99,97,84,28.74,28.74,24,5,24,1.74
2013-11-28,33.4,25.2,17.1,29.4,5.7,-5.3,85,45,24,28.74,28.74,26,9,26,0.01
2013-11-29,29.8,21.6,12.7,12.9,0.3,-11.1,74,41,24,28.74,28.74,15,4,15,0.00
2013-11-30,30.2,22.3,6.3,13.9,6.6,-3.1,68,52,32,28.74,28.74,14,3,14,0.00
2013-12-1,36.5,33.1,25.5,32.7,28.8,13.5,94,84,60,28.74,28.74,102,2,102,0.11
2013-12-2,39.6,36.1,34.0,38.8,34.8,32.4,99,95,92,28.74,28.74,4,1,4,0.01
2013-12-3,49.1,36.6,27.3,40.9,29.5,23.0,99,77,55,28.74,28.74,11,2,11,0.01
2013-12-4,41.0,30.6,23.9,28.0,22.9,20.6,92,73,57,28.74,28.74,11,2,11,0.00
2013-12-5,40.3,36.3,26.6,40.0,33.8,22.1,99,91,73,28.74,28.74,7,1,7,0.01
2013-12-6,52.9,47.1,44.4,52.3,43.2,36.1,99,87,72,28.74,28.74,12,6,12,0.01
2013-12-7,37.4,29.2,17.8,30.3,22.2,10.9,94,76,55,28.74,28.74,10,2,10,0.13
2013-12-8,29.1,24.7,15.3,15.4,12.2,5.6,76,59,42,28.74,28.74,11,2,11,0.00
2013-12-9,32.9,29.8,21.0,31.4,27.2,13.1,95,90,64,28.74,28.74,9,3,9,0.00
2013-12-10,33.3,27.2,0.0,30.8,19.6,5.5,95,72,51,28.74,28.74,17,6,17,0.00
2013-12-11,28.9,21.8,15.8,14.8,10.9,5.2,76,63,45,28.74,28.74,21,8,21,0.00
2013-12-12,21.4,13.5,5.7,12.1,-5.5,-13.7,74,44,24,28.74,28.74,15,5,15,0.00
2013-12-13,26.6,17.1,7.0,12.7,6.0,-4.8,72,61,49,28.74,28.74,18,5,18,0.00
2013-12-14,12.6,9.5,0.0,6.3,-7.3,-18.7,76,47,26,28.74,28.74,17,5,17,0.00
2013-12-15,27.1,20.8,12.9,21.7,15.2,6.8,84,78,71,28.74,28.74,20,6,20,0.00
2013-12-16,24.4,17.9,5.2,10.9,-0.3,-8.9,72,45,30,28.74,28.74,24,8,24,0.00
2013-12-17,14.4,6.8,-8.0,8.0,-3.0,-18.9,76,64,45,28.74,28.74,12,4,12,0.00
2013-12-18,31.1,24.7,14.5,17.6,14.0,8.1,81,64,52,28.74,28.74,19,7,19,0.00
2013-12-19,38.5,30.8,21.2,23.0,18.9,13.9,74,61,49,28.74,28.74,23,6,23,0.04
2013-12-20,52.5,39.1,28.0,32.1,28.2,20.5,80,66,41,28.74,28.74,17,3,17,0.00
2013-12-21,58.5,45.2,32.7,44.1,38.4,27.2,94,78,55,28.74,28.74,14,2,14,0.00
2013-12-22,46.0,34.5,31.3,45.2,33.7,30.5,99,97,95,28.74,28.74,8,2,8,0.07
2013-12-23,38.3,33.5,30.4,38.0,32.6,29.6,99,97,84,28.74,28.74,13,2,13,0.18
2013-12-24,33.8,28.4,20.7,28.3,11.6,4.8,80,49,39,28.74,28.74,58,5,58,0.00
2013-12-25,19.9,14.7,7.9,8.3,-4.7,-10.9,64,42,25,28.74,28.44,14,3,14,0.00
2013-12-26,30.2,24.8,14.0,23.3,16.7,0.3,79,71,51,28.44,28.44,11,3,11,0.00
2013-12-27,33.3,27.2,16.0,18.5,15.4,8.6,80,61,53,28.44,28.44,16,5,16,0.01
2013-12-28,43.9,33.3,24.6,26.3,22.5,14.0,73,65,47,28.44,28.44,19,6,19,0.02
2013-12-29,43.7,36.7,32.7,32.1,29.8,24.1,94,77,56,28.44,28.44,23,4,23,0.74
2013-12-30,38.1,27.8,13.3,32.3,12.9,-0.8,94,54,35,28.44,28.44,22,7,22,0.07
2013-12-31,23.4,17.2,4.3,6.5,1.3,-5.2,67,50,32,28.44,28.44,11,4,11,0.00
2014-1-1,23.2,16.1,7.0,5.8,1.5,-5.4,68,53,36,28.44,28.44,17,4,17,0.00
2014-1-2,15.4,5.5,-1.8,7.1,-3.6,-11.5,75,65,61,28.44,28.44,23,10,23,0.00